Montreal/Pierre Elliott Trudea, Quebec

11:13 PM EST on February 22, 2017 (GMT -0500)
Montreal International (Dorval)

Weather History for CYUL - April, 2013

Change the Weather History Date:

Saturday, April 20, 2013

  Actual Average Record
Temperature  
Mean Temperature 42 °F -  
Max Temperature 48 °F 60 °F 73 °F (2003)
Min Temperature 35 °F 41 °F 27 °F (2014)
Degree Days  
Heating Degree Days 24    
Moisture  
Dew Point 31 °F    
Average Humidity 65    
Maximum Humidity 87    
Minimum Humidity 46    
Precipitation  
Precipitation 0.02 in 0.09 in - ()
Sea Level Pressure  
Sea Level Pressure 29.84 in    
Wind  
Wind Speed 22 mph ()    
Max Wind Speed 36 mph    
Max Gust Speed 46 mph    
Visibility 14.3 miles    
Events Rain    
Averages and records for this station are not official NWS values.
T = Trace of Precipitation, MM = Missing Value Source: Averaged Metar Reports

Daily Weather History Graph

Daily Weather History Graph

Search for Another Location

Airport or City:

Trip Planner

Search our weather history database for the weather conditions in past years. The results will help you decide how hot, cold, wet, or windy it might be!

Date:

Astronomy

Apr. 20, 2013 Rise Set
Actual Time 6:00 AM EDT 7:47 PM EDT
Civil Twilight 5:29 AM EDT 8:19 PM EDT
Nautical Twilight 4:50 AM EDT 8:58 PM EDT
Astronomical Twilight 4:09 AM EDT 9:40 PM EDT
Moon 2:14 PM EDT (4/20) 3:04 AM EDT (4/20)
Length of Visible Light 14h 50m
Length of Day
13h 47m
Waxing Gibbous, 71% of the Moon is Illuminated
Apr 20
Waxing Gibbous
Apr 25
Full
May 2
Last Quarter
May 9
New
May 18
First Quarter

Hourly Weather History & Observations

Time (EDT) Temp. Windchill Dew Point Humidity Pressure Visibility Wind Dir Wind Speed Gust Speed Precip Events Conditions
12:00 AM 44.6 °F 35.3 °F 39.2 °F 81% 29.64 in 15.0 mi SW 26.5 mph 33.4 mph N/A   Overcast
1:00 AM 44.6 °F 35.9 °F 37.4 °F 76% 29.65 in 15.0 mi SW 23.0 mph 33.4 mph N/A   Overcast
2:00 AM 44 °F - 36 °F 64% 29.65 in 15 mi SW 25.3 mph - -   Partly Cloudy
2:00 AM 42.8 °F 32.9 °F 35.6 °F 76% 29.65 in 15.0 mi SW 26.5 mph 38.0 mph N/A   Mostly Cloudy
3:00 AM 42.8 °F 33.5 °F 35.6 °F 76% 29.64 in 15.0 mi SW 23.0 mph - N/A   Mostly Cloudy
4:00 AM 42.8 °F 34.5 °F 33.8 °F 70% 29.64 in 15.0 mi SW 18.4 mph - N/A   Scattered Clouds
5:00 AM 42.8 °F 35.1 °F 33.8 °F 70% 29.66 in 15.0 mi SW 16.1 mph - N/A   Overcast
6:00 AM 42.8 °F 34.0 °F 33.8 °F 70% 29.67 in 15.0 mi SSW 20.7 mph - N/A   Overcast
7:00 AM 42.8 °F 34.0 °F 32.0 °F 66% 29.68 in 15.0 mi SW 20.7 mph 32.2 mph N/A   Overcast
8:00 AM 43 °F - 31 °F 52% 29.69 in 15 mi SW 23.0 mph - -   Overcast
8:00 AM 42.8 °F 33.3 °F 30.2 °F 61% 29.69 in 15.0 mi SW 24.2 mph 31.1 mph N/A   Overcast
9:00 AM 44.6 °F 34.6 °F 30.2 °F 57% 29.70 in 30.0 mi SW 31.1 mph 36.8 mph N/A   Scattered Clouds
10:00 AM 46.4 °F 37.4 °F 30.2 °F 53% 29.71 in 30.0 mi SW 28.8 mph 42.6 mph N/A   Mostly Cloudy
10:02 AM 44.6 °F 34.4 °F 32.0 °F 61% 29.72 in 30.0 mi WSW 32.2 mph 41.4 mph N/A Rain Light Rain Showers
11:00 AM 41.0 °F 32.2 °F 37.4 °F 87% 29.73 in 30.0 mi SW 18.4 mph 27.6 mph N/A   Scattered Clouds
12:00 PM 44.6 °F 35.3 °F 28.4 °F 53% 29.75 in 30.0 mi WSW 26.5 mph 38.0 mph N/A   Mostly Cloudy
12:50 PM 46.4 °F 37.0 °F 30.2 °F 53% 29.78 in 30.0 mi West 31.1 mph 40.3 mph N/A Rain Light Rain Showers
1:00 PM 41.0 °F 30.7 °F 35.6 °F 81% 29.80 in 30.0 mi West 25.3 mph 43.7 mph N/A Rain Light Rain Showers
2:00 PM 43 °F - 36 °F 69% 29.82 in 28 mi SW 24.2 mph - - Rain Light Rain Showers
2:00 PM 42.8 °F 33.1 °F 35.6 °F 76% 29.82 in 30.0 mi SW 25.3 mph 33.4 mph N/A   Scattered Clouds
2:05 PM 42.8 °F 33.1 °F 35.6 °F 76% 29.83 in 15.0 mi SW 25.3 mph 33.4 mph N/A Rain Light Rain Showers
2:25 PM 41.0 °F 30.0 °F 35.6 °F 81% 29.84 in 30.0 mi SW 28.8 mph - N/A Rain Light Rain Showers
2:42 PM 41.0 °F 30.9 °F 37.4 °F 87% 29.84 in 30.0 mi SW 24.2 mph 35.7 mph N/A Rain Light Rain Showers
3:00 PM 42.8 °F 33.5 °F 33.8 °F 70% 29.86 in 15.0 mi WSW 23.0 mph 31.1 mph N/A   Mostly Cloudy
3:35 PM 39.2 °F 28.5 °F 32.0 °F 75% 29.89 in 15.0 mi SW 24.2 mph 34.5 mph N/A   Overcast
4:00 PM 41.0 °F 31.6 °F 30.2 °F 65% 29.91 in 15.0 mi WSW 20.7 mph 32.2 mph N/A   Overcast
4:17 PM 41.0 °F 32.8 °F 28.4 °F 61% 29.92 in 30.0 mi WSW 16.1 mph 32.2 mph N/A   Overcast
4:52 PM 41.0 °F 29.0 °F 24.8 °F 53% 29.95 in 15.0 mi WSW 35.7 mph 46.0 mph N/A   Light Small Hail Showers
5:00 PM 39.2 °F 28.3 °F 28.4 °F 65% 29.96 in 15.0 mi WSW 25.3 mph 46.0 mph N/A   Unknown
5:27 PM 41.0 °F 31.4 °F 23.0 °F 49% 29.97 in 30.0 mi WSW 21.9 mph 27.6 mph N/A   Overcast
6:00 PM 41.0 °F 30.9 °F 23.0 °F 49% 30.00 in 10.0 mi WSW 24.2 mph 32.2 mph N/A   Overcast
6:41 PM 39.2 °F 28.3 °F 24.8 °F 56% 30.03 in 3.0 mi WSW 25.3 mph 39.1 mph N/A   Unknown
7:00 PM 37.4 °F 27.8 °F 26.6 °F 65% 30.04 in 15.0 mi West 17.3 mph 23.0 mph N/A   Overcast
8:00 PM 37 °F - 24 °F 46% 30.10 in 15 mi WSW 15.0 mph - -   Overcast
8:00 PM 37.4 °F 27.8 °F 23.0 °F 56% 30.09 in 15.0 mi WSW 17.3 mph - N/A   Overcast
9:00 PM 37.4 °F 26.9 °F 21.2 °F 52% 30.15 in 15.0 mi WSW 20.7 mph 27.6 mph N/A   Mostly Cloudy
10:00 PM 35.6 °F 24.8 °F 23.0 °F 60% 30.20 in 15.0 mi WNW 19.6 mph 27.6 mph N/A   Overcast
11:00 PM 35.6 °F 24.8 °F 17.6 °F 48% 30.24 in 15.0 mi West 19.6 mph - N/A   Mostly Cloudy